Orlando, FL

2:50 AM EST on February 25, 2017 (GMT -0500)
Orlando International

Weather History for KMCO - November, 2011

Change the Weather History Date:

Wednesday, November 30, 2011

  Actual Average Record
Temperature  
Mean Temperature 57 °F 66 °F  
Max Temperature 64 °F 76 °F 86 °F (1978)
Min Temperature 49 °F 56 °F 32 °F (1959)
Degree Days  
Heating Degree Days 8 3  
Month to date heating degree days 23 45  
Since 1 July heating degree days 31 47  
Cooling Degree Days 0 3  
Month to date cooling degree days 140 147  
Year to date cooling degree days 3611 3354  
Growing Degree Days 6 (Base 50)    
Moisture  
Dew Point 48 °F    
Average Humidity 72    
Maximum Humidity 96    
Minimum Humidity 48    
Precipitation  
Precipitation 0.00 in 0.08 in 0.61 in (2008)
Month to date precipitation 0.13 2.17  
Year to date precipitation 56.08 48.15  
Sea Level Pressure  
Sea Level Pressure 30.04 in    
Wind  
Wind Speed 7 mph (WNW)    
Max Wind Speed 13 mph    
Max Gust Speed 16 mph    
Visibility 10 miles    
Events      
T = Trace of Precipitation, MM = Missing Value Source: NWS Daily Summary

Daily Weather History Graph

Daily Weather History Graph

Search for Another Location

Airport or City:

Trip Planner

Search our weather history database for the weather conditions in past years. The results will help you decide how hot, cold, wet, or windy it might be!

Date:

Astronomy

Nov. 30, 2011 Rise Set
Actual Time 6:59 AM EST 5:28 PM EST
Civil Twilight 6:33 AM EST 5:53 PM EST
Nautical Twilight 6:04 AM EST 6:22 PM EST
Astronomical Twilight 5:36 AM EST 6:51 PM EST
Moon 11:30 AM EST (11/30) 11:07 PM EST (11/30)
Length of Visible Light 11h 20m
Length of Day
10h 29m
Waxing Crescent, 33% of the Moon is Illuminated
Nov 30
Waxing Crescent
Dec 2
First Quarter
Dec 10
Full
Dec 17
Last Quarter
Dec 24
New

Hourly Weather History & Observations

Time (EST) Temp. Dew Point Humidity Pressure Visibility Wind Dir Wind Speed Gust Speed Precip Events Conditions
12:53 AM 54.0 °F 50.0 °F 86% 29.99 in 10.0 mi SSW 4.6 mph - N/A   Clear
1:53 AM 53.1 °F 50.0 °F 89% 30.00 in 10.0 mi SSW 4.6 mph - N/A   Clear
2:53 AM 52.0 °F 50.0 °F 93% 29.99 in 10.0 mi SSW 4.6 mph - N/A   Partly Cloudy
3:53 AM 52.0 °F 50.0 °F 93% 29.99 in 10.0 mi SSW 5.8 mph - N/A   Scattered Clouds
4:53 AM 53.1 °F 51.1 °F 93% 29.99 in 10.0 mi Calm Calm - N/A   Overcast
5:53 AM 55.0 °F 52.0 °F 89% 30.00 in 10.0 mi Calm Calm - N/A   Mostly Cloudy
6:53 AM 57.0 °F 53.1 °F 87% 30.02 in 10.0 mi North 6.9 mph - N/A   Mostly Cloudy
7:53 AM 55.0 °F 52.0 °F 89% 30.04 in 10.0 mi North 6.9 mph - N/A   Mostly Cloudy
8:51 AM 57.2 °F 51.8 °F 82% 30.06 in 10.0 mi NW 9.2 mph - N/A   Mostly Cloudy
8:53 AM 57.0 °F 52.0 °F 83% 30.06 in 10.0 mi NW 8.1 mph - N/A   Mostly Cloudy
9:15 AM 57.2 °F 51.8 °F 82% 30.06 in 10.0 mi NW 8.1 mph - N/A   Scattered Clouds
9:53 AM 59.0 °F 51.1 °F 75% 30.06 in 10.0 mi NNW 9.2 mph - N/A   Partly Cloudy
10:53 AM 60.1 °F 48.9 °F 67% 30.06 in 10.0 mi West 8.1 mph - N/A   Scattered Clouds
11:53 AM 62.1 °F 48.0 °F 60% 30.04 in 10.0 mi WNW 9.2 mph - N/A   Partly Cloudy
12:53 PM 62.1 °F 48.0 °F 60% 30.02 in 10.0 mi WNW 6.9 mph - N/A   Partly Cloudy
1:53 PM 63.0 °F 46.0 °F 54% 30.00 in 10.0 mi NW 10.4 mph - N/A   Clear
2:53 PM 63.0 °F 45.0 °F 52% 29.99 in 10.0 mi NNW 9.2 mph - N/A   Clear
3:53 PM 63.0 °F 43.0 °F 48% 29.99 in 10.0 mi WNW 6.9 mph - N/A   Clear
4:53 PM 61.0 °F 44.1 °F 54% 30.01 in 10.0 mi NW 6.9 mph - N/A   Clear
5:53 PM 57.9 °F 44.1 °F 60% 30.03 in 10.0 mi NW 8.1 mph - N/A   Clear
6:53 PM 55.9 °F 44.1 °F 64% 30.05 in 10.0 mi NW 6.9 mph - N/A   Clear
7:53 PM 54.0 °F 44.1 °F 69% 30.07 in 10.0 mi WNW 8.1 mph - N/A   Clear
8:53 PM 52.0 °F 45.0 °F 77% 30.08 in 10.0 mi WNW 10.4 mph - N/A   Clear
9:53 PM 50.0 °F 46.0 °F 86% 30.10 in 10.0 mi NW 6.9 mph - N/A   Clear
10:53 PM 50.0 °F 46.0 °F 86% 30.11 in 10.0 mi NW 9.2 mph - N/A   Clear
11:53 PM 48.9 °F 45.0 °F 86% 30.12 in 10.0 mi NW 6.9 mph - N/A   Clear